Time,TemperatureF,DewpointF,PressureIn,WindDirection,WindDirectionDegrees,WindSpeedMPH,WindSpeedGustMPH,Humidity,HourlyPrecipIn,Conditions,Clouds,dailyrainin,SolarRadiationWatts/m^2,SoftwareType,DateUTC
2013-07-01 00:01:00,72.0,64.0,29.80,NNE,22,0.0,1.0,75,0.00,,,0.00,0.000000,,2013-07-01 04:01:00,
2013-07-01 00:11:00,72.0,64.0,29.80,North,360,0.0,1.0,76,0.00,,,0.00,0.000000,,2013-07-01 04:11:00,
2013-07-01 00:22:00,72.0,64.0,29.80,North,360,0.0,1.0,76,0.00,,,0.00,0.000000,,2013-07-01 04:22:00,
2013-07-01 00:32:00,72.0,64.0,29.80,North,360,0.0,1.0,76,0.00,,,0.00,0.000000,,2013-07-01 04:32:00,
2013-07-01 00:43:00,72.0,64.0,29.80,North,360,0.0,1.0,76,0.00,,,0.00,0.000000,,2013-07-01 04:43:00,
2013-07-01 00:53:00,71.0,64.0,29.80,North,355,0.0,0.0,79,0.00,,,0.00,0.000000,,2013-07-01 04:53:00,
2013-07-01 01:01:00,70.0,64.0,29.80,North,360,0.0,1.0,81,0.00,,,0.00,0.000000,,2013-07-01 05:01:00,
2013-07-01 01:11:00,70.0,64.0,29.80,NNW,345,0.0,8.0,81,0.00,,,0.00,0.000000,,2013-07-01 05:11:00,
2013-07-01 01:22:00,70.0,64.0,29.80,North,5,0.0,0.0,82,0.00,,,0.00,0.000000,,2013-07-01 05:22:00,
2013-07-01 01:33:00,70.0,65.0,29.80,North,5,0.0,0.0,83,0.00,,,0.00,0.000000,,2013-07-01 05:33:00,
2013-07-01 01:42:00,70.0,65.0,29.80,North,5,0.0,0.0,84,0.00,,,0.00,0.000000,,2013-07-01 05:42:00,
2013-07-01 01:52:00,69.0,64.0,29.80,North,5,0.0,0.0,85,0.00,,,0.00,0.000000,,2013-07-01 05:52:00,
2013-07-01 02:02:00,69.0,64.0,29.80,North,5,0.0,0.0,85,0.00,,,0.00,0.000000,,2013-07-01 06:02:00,
2013-07-01 02:12:00,69.0,65.0,29.80,North,5,0.0,0.0,86,0.00,,,0.00,0.000000,,2013-07-01 06:12:00,
2013-07-01 02:24:00,69.0,65.0,29.80,North,5,0.0,0.0,86,0.00,,,0.00,0.000000,,2013-07-01 06:24:00,
2013-07-01 02:33:00,69.0,65.0,29.79,North,5,0.0,0.0,87,0.00,,,0.00,0.000000,,2013-07-01 06:33:00,
2013-07-01 02:43:00,69.0,65.0,29.80,North,5,0.0,0.0,87,0.00,,,0.00,0.000000,,2013-07-01 06:43:00,
2013-07-01 02:53:00,68.0,64.0,29.79,North,5,0.0,0.0,88,0.00,,,0.00,0.000000,,2013-07-01 06:53:00,
2013-07-01 03:01:00,68.0,65.0,29.79,North,5,0.0,0.0,89,0.00,,,0.00,0.000000,,2013-07-01 07:01:00,
2013-07-01 03:11:00,68.0,65.0,29.79,North,360,0.0,0.0,89,0.00,,,0.00,0.000000,,2013-07-01 07:11:00,
2013-07-01 03:22:00,68.0,65.0,29.79,North,360,0.0,0.0,90,0.00,,,0.00,0.000000,,2013-07-01 07:22:00,
2013-07-01 03:33:00,68.0,65.0,29.79,North,5,0.0,0.0,90,0.00,,,0.00,0.000000,,2013-07-01 07:33:00,
2013-07-01 03:43:00,68.0,65.0,29.79,North,5,0.0,0.0,91,0.00,,,0.00,0.000000,,2013-07-01 07:43:00,
2013-07-01 03:53:00,68.0,65.0,29.79,NW,323,0.0,0.0,91,0.00,,,0.00,0.000000,,2013-07-01 07:53:00,
2013-07-01 04:01:00,68.0,65.0,29.79,NW,312,0.0,0.0,91,0.00,,,0.00,0.000000,,2013-07-01 08:01:00,
2013-07-01 04:11:00,68.0,65.0,29.79,NW,323,0.0,0.0,91,0.00,,,0.00,0.000000,,2013-07-01 08:11:00,
2013-07-01 04:22:00,68.0,65.0,29.79,NNW,346,0.0,0.0,91,0.00,,,0.00,0.000000,,2013-07-01 08:22:00,
2013-07-01 04:33:00,67.0,64.0,29.79,North,360,2.0,4.0,91,0.00,,,0.00,0.000000,,2013-07-01 08:33:00,
2013-07-01 04:42:00,67.0,64.0,29.79,NW,305,0.0,3.0,91,0.00,,,0.00,0.000000,,2013-07-01 08:42:00,
2013-07-01 04:52:00,67.0,64.0,29.79,NNE,19,0.0,6.0,91,0.00,,,0.00,0.000000,,2013-07-01 08:52:00,
2013-07-01 05:02:00,67.0,64.0,29.80,NNE,21,0.0,0.0,91,0.00,,,0.00,0.000000,,2013-07-01 09:02:00,
2013-07-01 05:11:00,67.0,64.0,29.80,NNE,16,0.0,0.0,91,0.00,,,0.00,0.000000,,2013-07-01 09:11:00,
2013-07-01 05:22:00,67.0,64.0,29.80,North,5,0.0,0.0,91,0.00,,,0.00,0.000000,,2013-07-01 09:22:00,
2013-07-01 05:34:00,67.0,65.0,29.80,NNW,345,0.0,0.0,92,0.00,,,0.00,0.000000,,2013-07-01 09:34:00,
2013-07-01 05:43:00,67.0,65.0,29.80,North,355,0.0,3.0,92,0.00,,,0.00,0.000000,,2013-07-01 09:43:00,
2013-07-01 05:53:00,67.0,65.0,29.80,NNE,15,0.0,0.0,92,0.00,,,0.00,0.000000,,2013-07-01 09:53:00,
2013-07-01 06:03:00,67.0,64.0,29.81,NE,42,2.0,7.0,91,0.00,,,0.00,0.000000,,2013-07-01 10:03:00,
2013-07-01 06:22:00,67.0,64.0,29.81,NNW,330,0.0,5.0,91,0.00,,,0.00,0.000000,,2013-07-01 10:22:00,
2013-07-01 06:33:00,67.0,64.0,29.81,NW,312,0.0,0.0,91,0.00,,,0.00,0.000000,,2013-07-01 10:33:00,
2013-07-01 06:42:00,67.0,64.0,29.81,NNW,328,0.0,5.0,91,0.00,,,0.00,0.000000,,2013-07-01 10:42:00,
2013-07-01 06:52:00,67.0,64.0,29.81,North,11,0.0,7.0,91,0.00,,,0.00,0.000000,,2013-07-01 10:52:00,
2013-07-01 07:02:00,67.0,64.0,29.82,NNW,329,0.0,0.0,91,0.00,,,0.00,0.000000,,2013-07-01 11:02:00,
2013-07-01 07:11:00,67.0,64.0,29.82,NNW,333,0.0,0.0,91,0.00,,,0.00,5.000000,,2013-07-01 11:11:00,
2013-07-01 07:22:00,67.0,64.0,29.82,NNE,13,0.0,0.0,91,0.00,,,0.00,9.000000,,2013-07-01 11:22:00,
2013-07-01 07:33:00,67.0,65.0,29.83,NNW,329,0.0,0.0,92,0.00,,,0.00,12.000000,,2013-07-01 11:33:00,
2013-07-01 07:43:00,67.0,65.0,29.83,NW,321,0.0,0.0,92,0.00,,,0.00,11.000000,,2013-07-01 11:43:00,
2013-07-01 07:52:00,67.0,65.0,29.83,NW,304,0.0,0.0,92,0.00,,,0.00,14.000000,,2013-07-01 11:52:00,
2013-07-01 08:01:00,67.0,65.0,29.83,NNW,344,0.0,0.0,92,0.00,,,0.00,18.000000,,2013-07-01 12:01:00,
2013-07-01 08:11:00,67.0,65.0,29.83,NW,317,0.0,0.0,93,0.00,,,0.00,21.000000,,2013-07-01 12:11:00,
2013-07-01 08:22:00,68.0,66.0,29.83,NNW,332,0.0,0.0,93,0.00,,,0.00,30.000000,,2013-07-01 12:22:00,
2013-07-01 08:33:00,68.0,66.0,29.83,North,360,0.0,0.0,93,0.00,,,0.00,46.000000,,2013-07-01 12:33:00,
2013-07-01 08:43:00,68.0,66.0,29.83,NNE,22,0.0,1.0,93,0.00,,,0.00,65.000000,,2013-07-01 12:43:00,
2013-07-01 08:53:00,68.0,66.0,29.83,NW,304,0.0,3.0,93,0.00,,,0.00,69.000000,,2013-07-01 12:53:00,
2013-07-01 09:02:00,68.0,66.0,29.84,WNW,300,0.0,0.0,93,0.00,,,0.00,40.000000,,2013-07-01 13:02:00,
2013-07-01 09:12:00,68.0,66.0,29.84,NNW,328,1.0,5.0,93,0.00,,,0.00,40.000000,,2013-07-01 13:12:00,
2013-07-01 09:23:00,68.0,66.0,29.85,NW,325,2.0,6.0,93,0.00,,,0.00,42.000000,,2013-07-01 13:23:00,
2013-07-01 09:33:00,68.0,66.0,29.85,NW,324,1.0,6.0,93,0.00,,,0.00,53.000000,,2013-07-01 13:33:00,
2013-07-01 09:43:00,68.0,66.0,29.85,NW,308,1.0,6.0,92,0.00,,,0.00,93.000000,,2013-07-01 13:43:00,
2013-07-01 09:53:00,68.0,66.0,29.85,NNW,342,0.0,5.0,92,0.00,,,0.00,74.000000,,2013-07-01 13:53:00,
2013-07-01 10:01:00,69.0,67.0,29.85,North,355,0.0,0.0,92,0.00,,,0.00,113.000000,,2013-07-01 14:01:00,
2013-07-01 10:11:00,69.0,66.0,29.85,NW,318,0.0,5.0,91,0.00,,,0.00,211.000000,,2013-07-01 14:11:00,
2013-07-01 10:22:00,69.0,66.0,29.85,NNE,18,0.0,4.0,91,0.00,,,0.00,81.000000,,2013-07-01 14:22:00,
2013-07-01 10:34:00,69.0,66.0,29.85,NNW,343,0.0,6.0,89,0.00,,,0.00,130.000000,,2013-07-01 14:34:00,
2013-07-01 10:43:00,70.0,67.0,29.86,NNE,15,0.0,1.0,89,0.00,,,0.00,155.000000,,2013-07-01 14:43:00,
2013-07-01 10:52:00,70.0,67.0,29.85,North,360,0.0,1.0,89,0.00,,,0.00,190.000000,,2013-07-01 14:52:00,
2013-07-01 11:02:00,70.0,66.0,29.85,NNE,24,3.0,6.0,88,0.00,,,0.00,167.000000,,2013-07-01 15:02:00,
2013-07-01 11:11:00,70.0,66.0,29.85,North,360,0.0,6.0,87,0.00,,,0.00,223.000000,,2013-07-01 15:11:00,
2013-07-01 11:23:00,71.0,66.0,29.86,NNW,336,5.0,7.0,85,0.00,,,0.00,288.000000,,2013-07-01 15:23:00,
2013-07-01 11:34:00,71.0,66.0,29.85,North,355,2.0,6.0,84,0.00,,,0.00,322.000000,,2013-07-01 15:34:00,
2013-07-01 11:43:00,72.0,67.0,29.86,North,355,3.0,6.0,83,0.00,,,0.00,374.000000,,2013-07-01 15:43:00,
2013-07-01 11:52:00,73.0,66.0,29.86,North,5,6.0,10.0,80,0.00,,,0.00,366.000000,,2013-07-01 15:52:00,
2013-07-01 12:01:00,73.0,66.0,29.85,NNW,339,4.0,8.0,78,0.00,,,0.00,476.000000,,2013-07-01 16:01:00,
2013-07-01 12:11:00,74.0,66.0,29.85,NNW,333,5.0,9.0,77,0.00,,,0.00,997.000000,,2013-07-01 16:11:00,
2013-07-01 12:22:00,75.0,67.0,29.85,NW,315,0.0,9.0,75,0.00,,,0.00,446.000000,,2013-07-01 16:22:00,
2013-07-01 12:33:00,76.0,67.0,29.85,WNW,287,0.0,9.0,73,0.00,,,0.00,330.000000,,2013-07-01 16:33:00,
2013-07-01 12:44:00,77.0,66.0,29.85,North,355,0.0,6.0,70,0.00,,,0.00,1062.000000,,2013-07-01 16:44:00,
2013-07-01 12:53:00,78.0,67.0,29.85,WNW,296,2.0,7.0,70,0.00,,,0.00,374.000000,,2013-07-01 16:53:00,
2013-07-01 13:02:00,78.0,67.0,29.85,NNW,331,0.0,8.0,69,0.00,,,0.00,1129.000000,,2013-07-01 17:02:00,
2013-07-01 13:12:00,78.0,66.0,29.85,North,355,4.0,10.0,67,0.00,,,0.00,394.000000,,2013-07-01 17:12:00,
2013-07-01 13:23:00,77.0,66.0,29.85,NNW,340,1.0,8.0,69,0.00,,,0.00,1100.000000,,2013-07-01 17:23:00,
2013-07-01 13:34:00,78.0,66.0,29.85,NNW,331,6.0,11.0,67,0.00,,,0.00,193.000000,,2013-07-01 17:34:00,
2013-07-01 13:43:00,77.0,66.0,29.85,NNW,345,2.0,12.0,68,0.00,,,0.00,221.000000,,2013-07-01 17:43:00,
2013-07-01 13:53:00,76.0,66.0,29.85,NW,326,1.0,8.0,71,0.00,,,0.00,251.000000,,2013-07-01 17:53:00,
2013-07-01 14:02:00,76.0,66.0,29.85,NNE,18,0.0,7.0,72,0.00,,,0.00,575.000000,,2013-07-01 18:02:00,
2013-07-01 14:11:00,77.0,66.0,29.85,North,9,8.0,11.0,68,0.00,,,0.00,466.000000,,2013-07-01 18:11:00,
2013-07-01 14:22:00,78.0,66.0,29.85,NNW,341,2.0,8.0,67,0.00,,,0.00,267.000000,,2013-07-01 18:22:00,
2013-07-01 14:33:00,79.0,66.0,29.85,North,355,5.0,10.0,65,0.00,,,0.00,211.000000,,2013-07-01 18:33:00,
2013-07-01 14:43:00,78.0,66.0,29.84,NNE,32,5.0,11.0,66,0.00,,,0.00,596.000000,,2013-07-01 18:43:00,
2013-07-01 14:53:00,78.0,66.0,29.84,NNE,14,6.0,11.0,66,0.00,,,0.00,396.000000,,2013-07-01 18:53:00,
2013-07-01 15:02:00,79.0,67.0,29.84,NNE,19,2.0,8.0,67,0.00,,,0.00,1046.000000,,2013-07-01 19:02:00,
2013-07-01 15:11:00,80.0,67.0,29.84,NNW,336,7.0,11.0,64,0.00,,,0.00,1028.000000,,2013-07-01 19:11:00,
2013-07-01 15:22:00,80.0,66.0,29.84,NW,315,6.0,11.0,62,0.00,,,0.00,399.000000,,2013-07-01 19:22:00,
2013-07-01 15:33:00,80.0,67.0,29.83,WNW,299,4.0,11.0,64,0.00,,,0.00,1002.000000,,2013-07-01 19:33:00,
2013-07-01 15:44:00,80.0,66.0,29.84,North,360,6.0,15.0,63,0.00,,,0.00,236.000000,,2013-07-01 19:44:00,
2013-07-01 15:52:00,79.0,66.0,29.84,North,11,6.0,16.0,65,0.00,,,0.00,976.000000,,2013-07-01 19:52:00,
2013-07-01 16:02:00,79.0,67.0,29.84,North,10,5.0,11.0,66,0.00,,,0.00,573.000000,,2013-07-01 20:02:00,
2013-07-01 16:11:00,79.0,67.0,29.84,NNW,333,8.0,13.0,67,0.00,,,0.00,1127.000000,,2013-07-01 20:11:00,
2013-07-01 16:22:00,78.0,66.0,29.85,NNE,32,6.0,13.0,67,0.00,,,0.00,237.000000,,2013-07-01 20:22:00,
2013-07-01 16:34:00,79.0,65.0,29.84,North,350,8.0,13.0,63,0.00,,,0.00,896.000000,,2013-07-01 20:34:00,
2013-07-01 16:43:00,80.0,65.0,29.84,NNW,347,7.0,12.0,60,0.00,,,0.00,837.000000,,2013-07-01 20:43:00,
2013-07-01 16:52:00,81.0,66.0,29.84,North,360,5.0,10.0,61,0.00,,,0.00,851.000000,,2013-07-01 20:52:00,
2013-07-01 17:01:00,81.0,65.0,29.84,NNW,338,5.0,11.0,58,0.00,,,0.00,190.000000,,2013-07-01 21:01:00,
2013-07-01 17:11:00,81.0,65.0,29.84,NNW,327,2.0,9.0,59,0.00,,,0.00,856.000000,,2013-07-01 21:11:00,
2013-07-01 17:24:00,80.0,65.0,29.84,North,5,7.0,13.0,61,0.00,,,0.00,768.000000,,2013-07-01 21:24:00,
2013-07-01 17:34:00,79.0,64.0,29.84,NNE,33,5.0,11.0,61,0.00,,,0.00,244.000000,,2013-07-01 21:34:00,
2013-07-01 17:43:00,79.0,65.0,29.83,North,5,7.0,10.0,63,0.00,,,0.00,768.000000,,2013-07-01 21:43:00,
2013-07-01 17:53:00,80.0,65.0,29.84,North,355,6.0,12.0,60,0.00,,,0.00,608.000000,,2013-07-01 21:53:00,
2013-07-01 18:01:00,81.0,66.0,29.84,North,355,3.0,12.0,60,0.00,,,0.00,137.000000,,2013-07-01 22:01:00,
2013-07-01 18:11:00,80.0,65.0,29.84,NW,326,3.0,9.0,61,0.00,,,0.00,163.000000,,2013-07-01 22:11:00,
2013-07-01 18:24:00,79.0,65.0,29.85,North,5,6.0,12.0,62,0.00,,,0.00,615.000000,,2013-07-01 22:24:00,
2013-07-01 18:33:00,79.0,65.0,29.85,NNW,334,5.0,11.0,63,0.00,,,0.00,199.000000,,2013-07-01 22:33:00,
2013-07-01 18:43:00,78.0,65.0,29.85,NNE,23,4.0,14.0,64,0.00,,,0.00,248.000000,,2013-07-01 22:43:00,
2013-07-01 18:53:00,78.0,63.0,29.85,NNW,327,5.0,10.0,61,0.00,,,0.00,476.000000,,2013-07-01 22:53:00,
2013-07-01 19:01:00,79.0,65.0,29.85,NNW,344,1.0,13.0,62,0.00,,,0.00,376.000000,,2013-07-01 23:01:00,
2013-07-01 19:11:00,79.0,65.0,29.85,North,11,2.0,9.0,62,0.00,,,0.00,83.000000,,2013-07-01 23:11:00,
2013-07-01 19:22:00,78.0,64.0,29.85,North,5,6.0,13.0,62,0.00,,,0.00,343.000000,,2013-07-01 23:22:00,
2013-07-01 19:33:00,78.0,63.0,29.86,NE,40,6.0,16.0,61,0.00,,,0.00,294.000000,,2013-07-01 23:33:00,
2013-07-01 19:44:00,78.0,63.0,29.86,NNE,22,4.0,11.0,61,0.00,,,0.00,253.000000,,2013-07-01 23:44:00,
2013-07-01 19:53:00,78.0,63.0,29.87,North,11,4.0,14.0,61,0.00,,,0.00,90.000000,,2013-07-01 23:53:00,
2013-07-01 20:01:00,77.0,63.0,29.87,North,350,7.0,14.0,62,0.00,,,0.00,185.000000,,2013-07-02 00:01:00,
2013-07-01 20:12:00,77.0,63.0,29.87,NE,51,5.0,14.0,61,0.00,,,0.00,151.000000,,2013-07-02 00:12:00,
2013-07-01 20:22:00,78.0,63.0,29.88,NNE,25,3.0,12.0,61,0.00,,,0.00,134.000000,,2013-07-02 00:22:00,
2013-07-01 20:34:00,77.0,63.0,29.88,NNE,22,7.0,15.0,63,0.00,,,0.00,88.000000,,2013-07-02 00:34:00,
2013-07-01 20:53:00,75.0,62.0,29.88,North,355,4.0,10.0,63,0.00,,,0.00,23.000000,,2013-07-02 00:53:00,
2013-07-01 21:01:00,75.0,62.0,29.88,NNE,22,2.0,11.0,64,0.00,,,0.00,18.000000,,2013-07-02 01:01:00,
2013-07-01 21:33:00,74.0,61.0,29.89,NNW,348,0.0,9.0,65,0.00,,,0.00,0.000000,,2013-07-02 01:33:00,
2013-07-01 21:43:00,74.0,61.0,29.89,North,5,1.0,8.0,65,0.00,,,0.00,0.000000,,2013-07-02 01:43:00,
2013-07-01 21:53:00,74.0,62.0,29.89,NNE,29,1.0,7.0,66,0.00,,,0.00,0.000000,,2013-07-02 01:53:00,
2013-07-01 22:02:00,74.0,62.0,29.89,NNE,24,2.0,9.0,67,0.00,,,0.00,0.000000,,2013-07-02 02:02:00,
2013-07-01 22:11:00,73.0,62.0,29.89,North,355,3.0,9.0,68,0.00,,,0.00,0.000000,,2013-07-02 02:11:00,
2013-07-01 22:22:00,73.0,62.0,29.89,NE,38,6.0,10.0,68,0.00,,,0.00,0.000000,,2013-07-02 02:22:00,
2013-07-01 22:33:00,73.0,62.0,29.90,North,5,1.0,11.0,69,0.00,,,0.00,0.000000,,2013-07-02 02:33:00,
2013-07-01 22:43:00,72.0,61.0,29.90,North,350,4.0,8.0,69,0.00,,,0.00,0.000000,,2013-07-02 02:43:00,
2013-07-01 22:53:00,72.0,62.0,29.90,NNE,17,2.0,5.0,70,0.00,,,0.00,0.000000,,2013-07-02 02:53:00,
2013-07-01 23:01:00,72.0,62.0,29.90,North,355,0.0,5.0,70,0.00,,,0.00,0.000000,,2013-07-02 03:01:00,
2013-07-01 23:12:00,72.0,62.0,29.90,NNE,15,2.0,5.0,71,0.00,,,0.00,0.000000,,2013-07-02 03:12:00,
2013-07-01 23:24:00,71.0,62.0,29.90,North,360,4.0,7.0,72,0.00,,,0.00,0.000000,,2013-07-02 03:24:00,
2013-07-01 23:32:00,71.0,62.0,29.90,NE,52,2.0,9.0,72,0.00,,,0.00,0.000000,,2013-07-02 03:32:00,
2013-07-01 23:43:00,71.0,62.0,29.90,NNW,333,4.0,9.0,72,0.00,,,0.00,0.000000,,2013-07-02 03:43:00,
2013-07-01 23:53:00,71.0,62.0,29.90,North,350,2.0,7.0,73,0.00,,,0.00,0.000000,,2013-07-02 03:53:00,